Location: Cosy Dell
(34.2789°N, 117.4537°W)
Time: 00:23:16
(UTC+00:00)

X-37B - Visible Passes

Search period start: 26 September 2020 00:00
Search period end: 06 October 2020 00:00
Orbit: 386 x 387 km, 45.0° (Epoch: 18 September)

Date Brightness Start Highest point End Pass type
(mag) Time Alt. Az. Time Alt. Az. Time Alt. Az.
26 Sep 2.5 12:55:37 14° WSW 12:56:29 15° SW 12:58:24 10° S visible
27 Sep 3.3 12:00:39 12° SSE 12:00:39 12° SSE 12:00:56 10° SSE visible
30 Sep 2.3 02:31:48 10° S 02:33:56 17° SE 02:34:00 17° SE visible
01 Oct 1.2 03:08:35 10° SW 03:11:04 51° SW 03:11:04 51° SW visible
02 Oct 1.3 02:10:19 10° SSW 02:13:14 35° SE 02:15:39 14° ENE visible
02 Oct 3.7 03:47:05 10° W 03:47:57 16° WNW 03:47:57 16° WNW visible
03 Oct 1.3 02:48:07 10° WSW 02:51:13 49° NNW 02:52:22 31° NNE visible
04 Oct 3.1 03:27:08 10° WNW 03:28:57 18° NNW 03:28:57 18° NNW visible
05 Oct 2.3 02:27:57 10° W 02:30:45 28° NNW 02:33:09 13° NE visible
